User: anonymous   Login
Location: Bismarck
(46.7731°N, 100.8200°W)
Time: 20:22:12
(UTC-05:00)
Language:

Landsat 7 - Orbit

View from above orbital plane
View from above orbital plane
View from above satellite
View from above satellite

Ground track
Ground track

The orbit data is extracted from the following two-line orbital elements,

1 25682U 99020A   16145.25017180  .00000190  00000-0  52160-4 0  9992
2 25682  98.2186 215.9767 0002039 105.6549 254.4891 14.57105030909951
Epoch (UTC): 24 May 2016 06:00:14
Eccentricity: 0.0002039
inclination: 98.2186°
perigee height: 701 km
apogee height: 704 km
right ascension of ascending node: 215.9767°
argument of perigee: 105.6549°
revolutions per day: 14.57105030
mean anomaly at epoch: 254.4891°
orbit number at epoch: 90995

The dashed part of the orbit path shows where the satellite is in the earth's shadow,  

DLR